Location: Cazavet
(43.0017°N, 1.0431°E)
Time: 22:37:34
(UTC+00:00)

Cosmos 1943 Rocket - Pass Details

Date: 18 January 2026
Orbit: 811 x 842 km, 71.0° (Epoch: 11 February)

Event Time Altitude Azimuth Distance (km) Brightness Sun altitude
Exits shadow 04:25:37 42° 137° (SE) 1,137 3.0 -32.0°
Maximum altitude 04:26:34 47° 108° (ESE) 1,068 3.0 -31.8°
Drops below altitude 10° 04:31:48 10° 36° (NE) 2,406 4.9 -30.9°
Sets 04:34:18 0° 30° (NNE) 3,343 5.7 -30.4°
